Stations météo

réclame
Mon MeteoGroup
Gaddede A, Suède (2219): Température de l'air & dewpoint: 12.02.2019 01:00:00 - 18.02.2019 01:00:00 (CET)Gaddede A, Suède (2219): Vitesse du vent & gusts: 12.02.2019 01:00:00 - 18.02.2019 01:00:00 (CET)Gaddede A, Suède (2219): Direction du vent: 12.02.2019 01:00:00 - 18.02.2019 01:00:00 (CET)Gaddede A, Suède (2219): reduced air pressure: 12.02.2019 01:00:00 - 18.02.2019 01:00:00 (CET)Gaddede A, Suède (2219): visibility: 12.02.2019 01:00:00 - 18.02.2019 01:00:00 (CET)Gaddede A, Suède (2219): Quantités de précipitations: 12.02.2019 01:00:00 - 18.02.2019 01:00:00 (CET)
Date & Time tt [°C] td [°C] ff [km/h] ff [knt] fx [km/h] fx [knt] dd ppp [hPa] vv [km] rr [mm]
18.02.2019 01:00:00 - - - - - - - - - -
18.02.2019 00:00:00 -3,0 -4,3 15 8 34 19 ESE 1010,0 1,7 0,3
17.02.2019 23:00:00 -3,2 -4,5 17 9 37 20 E 1010,8 2,0 0,4
17.02.2019 22:00:00 -3,1 -4,8 19 10 36 20 E 1011,8 4,2 0,0
17.02.2019 21:00:00 -3,2 -4,6 16 9 33 18 ESE 1012,3 4,4 0,2
17.02.2019 20:00:00 -3,1 -4,5 16 9 29 16 ESE 1013,7 2,9 0,3
17.02.2019 19:00:00 -3,0 -5,0 16 8 39 21 ESE 1014,5 2,0 0,1
17.02.2019 18:00:00 -2,1 -6,1 18 10 35 19 ESE 1014,3 44 0,0
17.02.2019 17:00:00 -1,7 -5,7 14 8 34 18 ESE 1015,2 50 0,0
17.02.2019 16:00:00 -1,4 -5,3 16 8 29 16 ESE 1015,7 28 0,0
17.02.2019 15:00:00 -1,3 -5,3 9 5 19 10 ESE 1016,2 23 0,0
17.02.2019 14:00:00 -1,4 -5,4 7 4 14 7 ESE 1016,4 14 0,0
17.02.2019 13:00:00 -0,2 -5,2 1 1 10 5 E 1016,8 10 0,0
17.02.2019 12:00:00 -1,2 -5,8 4 2 13 7 NE 1017,0 16 0,0
17.02.2019 11:00:00 -1,3 -5,7 6 3 13 7 WNW 1017,2 17 0,0
17.02.2019 10:00:00 -1,6 -5,3 5 3 10 5 W 1017,3 32 0,0
17.02.2019 09:00:00 -2,8 -4,7 2 1 11 6 NE 1017,2 22 0,1
17.02.2019 08:00:00 -2,8 -3,8 6 3 16 9 W 1016,3 2,8 0,1
17.02.2019 07:00:00 -2,7 -4,3 2 1 16 8 WSW 1015,5 12 0,0
17.02.2019 06:00:00 -2,6 -4,5 4 2 31 17 NW 1014,8 26 0,0
17.02.2019 05:00:00 -2,5 -4,4 16 9 31 17 WNW 1013,6 21 0,0
17.02.2019 04:00:00 -2,4 -4,7 16 9 41 22 WNW 1012,8 27 0,0
17.02.2019 03:00:00 -2,7 -5,3 17 9 38 21 W 1012,6 9 0,0
17.02.2019 02:00:00 -2,9 -5,2 13 7 38 20 WNW 1011,6 30 0,0
17.02.2019 01:00:00 -3,0 -5,5 20 11 42 23 WNW 1010,3 31 0,0
17.02.2019 00:00:00 -2,5 -5,8 21 11 42 23 WNW 1009,9 39 0,0
16.02.2019 23:00:00 -2,3 -5,0 18 10 36 19 W 1009,5 41 0,0
16.02.2019 22:00:00 -2,4 -4,7 17 9 36 19 W 1009,2 36 0,0
16.02.2019 21:00:00 -2,6 -4,5 6 4 37 20 WNW 1008,0 40 0,0
16.02.2019 20:00:00 -2,8 -5,3 16 9 56 30 W 1007,0 42 0,0
16.02.2019 19:00:00 -2,2 -4,7 21 11 49 26 W 1006,3 22 0,0
16.02.2019 18:00:00 -2,6 -5,7 16 9 51 27 W 1005,5 31 0,0
16.02.2019 17:00:00 -2,5 -4,1 18 10 61 33 W 1004,8 11 0,1
16.02.2019 16:00:00 -1,2 -4,7 27 15 61 33 W 1004,2 22 0,0
16.02.2019 15:00:00 -0,9 -4,9 19 10 56 30 W 1003,1 29 0,0
16.02.2019 14:00:00 -0,3 -5,1 26 14 56 30 W 1002,2 28 0,0
16.02.2019 13:00:00 0,4 -3,9 25 14 60 32 W 1001,8 14 0,0
16.02.2019 12:00:00 0,8 -4,0 28 15 64 35 W 1001,1 18 0,0
16.02.2019 11:00:00 -0,5 -3,5 22 12 55 30 W 1001,1 21 0,2
16.02.2019 10:00:00 0,1 -0,9 24 13 53 28 W 1000,9 9 0,1
16.02.2019 09:00:00 0,1 -0,8 23 12 51 28 W 1001,0 6 0,0
16.02.2019 08:00:00 0,7 -1,1 23 13 59 32 W 1000,7 24 0,0
16.02.2019 07:00:00 1,0 -0,2 22 12 53 28 W 1000,5 18 0,0
16.02.2019 06:00:00 1,6 0,6 23 13 61 33 W 1000,7 37 0,0
16.02.2019 05:00:00 2,7 1,4 30 16 63 34 W 999,8 42 0,0
16.02.2019 04:00:00 2,8 -1,2 17 9 41 22 W 1000,9 45 0,0
16.02.2019 03:00:00 0,2 -0,5 2 1 10 5 E 1001,0 40 0,0
16.02.2019 02:00:00 1,6 0,7 5 3 16 9 E 1001,8 30 0,0
16.02.2019 01:00:00 2,6 0,0 8 4 18 10 E 1002,4 25 0,0
16.02.2019 00:00:00 3,3 0,5 11 6 21 11 E 1003,5 14 0,0
15.02.2019 23:00:00 3,4 1,3 13 7 25 13 E 1004,4 43 0,0
15.02.2019 22:00:00 2,8 1,3 13 7 31 17 E 1006,0 27 0,0
15.02.2019 21:00:00 - - - - 16 9 - - - -
15.02.2019 20:00:00 -0,1 -0,1 6 3 10 5 E 1008,4 7 0,0
15.02.2019 19:00:00 1,9 1,8 4 2 24 13 SSW 1009,7 10 0,0
15.02.2019 18:00:00 2,5 2,2 16 9 38 21 WNW 1009,8 12 0,0
15.02.2019 17:00:00 2,6 2,5 19 10 34 18 WNW 1010,3 12 0,0
15.02.2019 16:00:00 2,6 2,6 15 8 36 19 WNW 1010,9 12 0,0
15.02.2019 15:00:00 2,7 2,7 18 10 40 22 WNW 1011,3 0,4 0,0
15.02.2019 14:00:00 2,5 2,5 19 10 46 25 WNW 1011,5 2,1 0,0
15.02.2019 13:00:00 2,4 2,4 25 13 44 24 WNW 1011,5 6 0,0
15.02.2019 12:00:00 1,0 1,0 16 9 34 19 W 1012,4 8 0,2
15.02.2019 11:00:00 0,3 0,3 9 5 19 10 WNW 1012,7 2,3 1,4
15.02.2019 10:00:00 -0,3 -0,3 11 6 21 12 WNW 1013,0 0,7 1,6
15.02.2019 09:00:00 -0,4 -0,4 11 6 20 11 WNW 1012,6 0,7 2,0
15.02.2019 08:00:00 -0,6 -0,6 11 6 25 14 W 1012,7 0,7 1,6
15.02.2019 07:00:00 -0,7 -0,7 10 5 30 16 WNW 1012,9 0,7 1,5
15.02.2019 06:00:00 -0,9 -0,9 16 9 35 19 W 1013,0 0,8 0,7
15.02.2019 05:00:00 -0,5 -0,8 18 10 50 27 W 1013,1 1,4 0,2
15.02.2019 04:00:00 1,7 -1,7 20 11 51 27 W 1012,2 17 0,0
15.02.2019 03:00:00 1,8 -1,6 20 11 57 31 W 1012,2 19 0,0
15.02.2019 02:00:00 1,9 -1,7 29 16 64 35 W 1011,3 22 0,0
15.02.2019 01:00:00 1,4 -0,4 22 12 62 34 W 1011,0 16 0,0
15.02.2019 00:00:00 0,3 0,2 32 17 68 37 W 1010,6 1,8 0,1
14.02.2019 23:00:00 0,8 0,2 32 17 62 34 W 1009,8 4,7 0,2
14.02.2019 22:00:00 1,2 -1,0 26 14 65 35 W 1009,0 7 0,0
14.02.2019 21:00:00 2,0 -1,4 32 17 78 42 W 1008,5 13 0,0
14.02.2019 20:00:00 1,7 -0,4 29 16 68 37 W 1008,0 9 0,0
14.02.2019 19:00:00 1,5 0,0 33 18 77 41 W 1007,6 7 0,2
14.02.2019 18:00:00 1,6 0,6 33 18 79 43 W 1007,1 5 0,0
14.02.2019 17:00:00 1,6 1,3 31 17 84 45 W 1006,1 4,2 0,2
14.02.2019 16:00:00 2,3 1,7 29 16 67 36 W 1004,9 15 0,3
14.02.2019 15:00:00 2,0 1,6 29 16 74 40 W 1004,9 7 0,4
14.02.2019 14:00:00 2,3 1,9 29 15 74 40 W 1004,7 6 0,4
14.02.2019 13:00:00 3,4 1,1 29 16 55 30 W 1004,2 27 0,0
14.02.2019 12:00:00 3,1 2,1 24 13 62 33 W 1005,1 26 0,4
14.02.2019 11:00:00 3,7 3,1 21 11 41 22 W 1004,9 9 0,2
14.02.2019 10:00:00 4,4 2,4 18 10 41 22 W 1004,8 23 0,5
14.02.2019 09:00:00 4,6 2,9 19 10 40 21 WSW 1005,5 18 0,3
14.02.2019 08:00:00 3,9 3,0 10 5 28 15 W 1007,1 29 0,0
14.02.2019 07:00:00 2,9 2,9 11 6 33 18 W 1008,4 8 0,1
14.02.2019 06:00:00 2,4 2,4 10 6 31 17 W 1009,4 9 0,1
14.02.2019 05:00:00 2,1 2,1 10 6 27 15 W 1009,9 10 0,1
14.02.2019 04:00:00 1,7 1,7 10 5 28 15 W 1010,4 17 0,1
14.02.2019 03:00:00 1,5 1,5 10 5 20 11 W 1011,2 4,3 0,1
14.02.2019 02:00:00 0,9 0,8 4 2 26 14 W 1011,7 6 0,2
14.02.2019 01:00:00 0,8 0,7 6 3 21 11 W 1012,4 4,3 0,2
14.02.2019 00:00:00 0,9 0,5 9 5 19 10 W 1012,5 7 0,1
13.02.2019 23:00:00 0,4 -0,9 4 2 24 13 WNW 1012,4 11 0,0
13.02.2019 22:00:00 0,3 -1,0 11 6 32 18 NW 1011,9 11 0,0
13.02.2019 21:00:00 0,8 -0,5 16 9 42 23 WNW 1012,0 11 0,0
13.02.2019 20:00:00 0,5 -0,6 16 9 41 22 WNW 1011,7 12 0,0
13.02.2019 19:00:00 0,5 -0,2 20 11 49 26 WNW 1011,4 12 0,0
13.02.2019 18:00:00 -0,1 -0,1 21 12 49 26 W 1010,7 2,3 0,0
13.02.2019 17:00:00 0,2 0,1 23 12 42 23 W 1009,5 8 0,0
13.02.2019 16:00:00 0,1 -0,5 19 10 46 25 W 1008,8 50 0,0
13.02.2019 15:00:00 0,5 -0,5 22 12 60 33 WNW 1006,7 48 0,0
13.02.2019 14:00:00 1,1 0,1 27 15 79 43 W 1003,6 46 0,0
13.02.2019 13:00:00 0,9 0,5 30 16 82 44 W 1000,7 9 0,0
13.02.2019 12:00:00 1,6 -0,5 35 19 74 40 W 999,2 16 0,0
13.02.2019 11:00:00 1,6 -0,2 28 15 59 32 W 999,1 18 0,0
13.02.2019 10:00:00 1,4 0,1 23 13 63 34 W 998,9 15 0,0
13.02.2019 09:00:00 0,9 0,0 24 13 53 29 W 998,5 12 0,0
13.02.2019 08:00:00 0,6 0,0 22 12 52 28 W 998,5 12 0,0
13.02.2019 07:00:00 0,7 0,6 25 13 55 30 W 997,6 10 0,0
13.02.2019 06:00:00 0,6 0,6 20 11 49 26 W 997,5 9 0,0
13.02.2019 05:00:00 0,1 0,1 16 9 30 16 W 997,0 5 0,3
13.02.2019 04:00:00 -0,7 -0,7 11 6 23 12 W 996,2 3,3 0,2
13.02.2019 03:00:00 -1,0 -1,0 7 4 19 11 SW 996,1 2,1 0,5
13.02.2019 02:00:00 -3,0 -3,7 13 7 28 15 ESE 997,0 2,2 0,2
13.02.2019 01:00:00 -3,0 -3,5 12 7 26 14 ESE 998,1 3,6 1,5
13.02.2019 00:00:00 -2,8 -3,3 11 6 27 15 E 999,4 0,8 1,1
12.02.2019 23:00:00 -2,7 -3,5 13 7 23 12 E 1001,0 3,1 0,3
12.02.2019 22:00:00 -3,3 -4,3 11 6 23 12 ESE 1002,9 2,6 0,1
12.02.2019 21:00:00 -3,8 -5,4 14 8 22 12 E 1004,0 16 0,0
12.02.2019 20:00:00 -4,3 -5,5 11 6 18 10 E 1005,5 10 0,1
12.02.2019 19:00:00 -4,4 -5,4 9 5 16 8 E 1006,8 14 0,0
12.02.2019 18:00:00 -4,3 -5,1 3 2 10 5 SSE 1007,7 49 0,0
12.02.2019 17:00:00 -4,4 -5,1 6 4 12 7 WNW 1008,6 47 0,0
12.02.2019 16:00:00 -4,4 -5,4 6 4 20 11 WNW 1009,3 48 0,0
12.02.2019 15:00:00 -4,2 -5,9 9 5 23 12 W 1009,9 50 0,0
12.02.2019 14:00:00 -4,4 -5,9 12 6 23 13 WNW 1010,3 50 0,0
12.02.2019 13:00:00 -4,2 -5,5 10 6 24 13 W 1010,4 48 0,0
12.02.2019 12:00:00 -4,0 -5,5 8 5 19 11 W 1010,7 29 0,0
12.02.2019 11:00:00 -5,2 -6,6 5 3 15 8 WNW 1011,1 14 0,0
12.02.2019 10:00:00 -5,5 -7,0 6 4 16 9 WNW 1011,1 8 0,0
12.02.2019 09:00:00 -6,0 -7,4 8 5 20 11 WNW 1011,0 34 0,0
12.02.2019 08:00:00 -6,6 -7,5 6 3 20 11 NNW 1011,0 26 -
12.02.2019 07:00:00 -7,3 -8,1 7 4 21 12 WNW 1010,8 23 0,0
12.02.2019 06:00:00 -6,4 -7,3 11 6 28 15 W 1010,6 22 0,1
12.02.2019 05:00:00 -5,2 -5,7 11 6 23 12 W 1010,3 24 0,0
12.02.2019 04:00:00 -4,2 -4,5 13 7 38 21 W 1009,2 24 1,9
12.02.2019 03:00:00 -3,9 -4,2 16 9 36 20 W 1007,8 0,3 1,9
12.02.2019 02:00:00 -4,3 -4,5 14 8 29 16 W 1007,2 4,8 0,1
12.02.2019 01:00:00 -4,6 -5,3 13 7 25 14 WNW 1007,0 42 0,0

tt = Température de l'air
td = dewpoint
ff = Vitesse du vent
fx = gusts
dd = Direction du vent
ppp = reduced air pressure
vv = visibility
rr = Quantités de précipitations

stations d'obs. à proximité